Regional Weather Roundup
Issued by NWS

Home | Current Version | Previous Version | Text Only | Print | Product List | Glossary Off
Versions: 1 2 3 4 5 6 7 8 9 10 11 12 13 14 15 16 17 18 19 20 21 22 23 24 25 26 27 28 29 30 31 32 33 34 35 36 37 38 39 40 41 42 43 44 45 46 47 48 49 50

000
ASUS43 KLOT 222306
RWRIL

ILLINOIS REGIONAL WEATHER ROUNDUP
NATIONAL WEATHER SERVICE CHICAGO/ROMEOVILLE IL
600 PM CDT MON SEP 22 2014

NOTE: "FAIR" INDICATES FEW OR NO CLOUDS BELOW 12,000 FEET WITH NO
SIGNIFICANT WEATHER AND/OR OBSTRUCTIONS TO VISIBILITY.

* THESE STATIONS ARE NOT UNDER NWS QUALITY CONTROL. THEY ALSO MAY NOT
  REPORT WEATHER SUCH AS PRECIPITATION OR FOG.

ILZ001-002-007-009-015-016-024-230000-
NORTHWEST ILLINOIS

CITY           SKY/WX    TMP DP  RH WIND       PRES   REMARKS
MOLINE         SUNNY     68  46  45 S5        30.23F
STERLING*      CLEAR     68  45  42 N5        30.23S
SAVANNA*       CLEAR     68  44  42 CALM      30.23S
$$

ILZ003-004-008-010-011-017-018-230000-
NORTH CENTRAL ILLINOIS

CITY           SKY/WX    TMP DP  RH WIND       PRES   REMARKS
ROCKFORD       CLEAR     67  46  47 W5        30.24S
FREEPORT*      CLEAR     65  45  47 W6        30.24S
ROCHELLE*      CLEAR     66  44  44 W3        30.24S
DE KALB*       CLEAR     63  44  49 NW3       30.24S
PERU*          CLEAR     68  44  42 W3        30.24S
$$

ILZ005-006-012>014-019>023-230000-
NORTHEAST ILLINOIS

CITY           SKY/WX    TMP DP  RH WIND       PRES   REMARKS
CHICAGO-OHARE  CLEAR     67  42  40 W3        30.21F
CHICAGO-MIDWAY CLEAR     64  46  52 E9        30.23S
AURORA         CLEAR     67  43  41 NW3       30.23F
LANSING*       CLEAR     61  44  53 E5        30.24S
JOLIET*        CLEAR     65  41  41 CALM      30.24S
WAUKEGAN       CLEAR     60  49  66 SE7       30.21S
DUPAGE AIRPORT CLEAR     67  44  43 W3        30.22F
KANKAKEE*      CLEAR     65  47  52 CALM      30.25R
WHEELING       CLEAR     67  44  43 W3        30.23F
MORRIS*        CLEAR     67  46  46 CALM      30.23S
ROMEOVILLE*    CLEAR     64  45  49 CALM      30.24S
NORTHERLY ISL    N/A     60  46  59 SE8         N/A
$$

LMZ740>746-230000-
SOUTHERN LAKE MICHIGAN

STATION/POSITION SKY/WX   TEMP    WIND        PRES    VSBY  WAVE
                          AIR SEA DIR/SP/G                  HT/PER
                          (F)     (DEG/KT/KT) (MB)    (MI)  (FT/S)
SOUTHERN BUOY              59 62  190/  8/ 10 1023.6F         2/ 6
WAUKEGAN HARBOR            62     180/ 10/ 13   N/A
BURNHAM HARBOR             60     140/  4/  7   N/A
CALUMET HARBOR             59      80/  7/  8 1022.7F
MICHIGAN CITY 6N           58 64  120/  4/  6   N/A           3/ 6
ST. JOSEPH                 58 65  230/  4/  6   N/A           2/ 5
$$

ILZ025>027-034>036-040-047-049-050-058-095>099-230000-
WEST-CENTRAL ILLINOIS

CITY           SKY/WX    TMP DP  RH WIND       PRES   REMARKS
QUINCY         SUNNY     71  40  32 CALM      30.23S
GALESBURG*     SUNNY     70  50  48 N3        30.25S
MACOMB*        SUNNY     70  42  37 CALM      30.26S
JACKSONVILLE*  SUNNY     72  43  35 CALM      30.25S
PITTSFIELD*    SUNNY     72  42  34 CALM      30.25S
$$

ILZ028>032-037-038-041>044-048-051>054-059>061-230000-
CENTRAL ILLINOIS

CITY           SKY/WX    TMP DP  RH WIND       PRES   REMARKS
PONTIAC        CLEAR     70  43  37 N3        30.24R
BLOOMINGTON    CLEAR     69  40  34 NW5       30.26R
DECATUR        CLEAR     68  46  45 N5        30.24S
PEORIA         CLEAR     69  45  41 CALM      30.25R
LACON*         CLEAR     67  43  42 E3        30.24S HAZE
LINCOLN*       CLEAR     70  41  34 N3        30.22S
SPRINGFIELD    CLEAR     71  44  37 W6        30.24S
TAYLORVILLE    CLEAR     70  39  32 N3        30.23F
$$

ILZ033-039-045-046-055>057-062-063-230000-
EAST-CENTRAL ILLINOIS

CITY           SKY/WX    TMP DP  RH WIND       PRES   REMARKS
CHAMPAIGN      CLEAR     65  46  50 NW7       30.24S
DANVILLE*      CLEAR     65  46  48 N5        30.21S
RANTOUL*       CLEAR     69  40  35 N5        30.24S
MATTOON        CLEAR     68  44  42 N5        30.23R
PARIS*         CLEAR     67  46  46 CALM      30.24S
$$

ILZ079-100>102-230000-
SOUTHWEST ILLINOIS

CITY           SKY/WX    TMP DP  RH WIND       PRES   REMARKS
ALTON          SUNNY     70  36  28 W6        30.23S
BELLEVILLE     SUNNY     71  48  43 NW5       30.22S
CAHOKIA*       SUNNY     73  47  39 N7        30.22F
SPARTA*        SUNNY     70  47  44 NE3       30.23S
$$

ILZ064>066-069>071-074>076-080>082-084>086-088>090-092>094-230000-
SOUTH-CENTRAL ILLINOIS

CITY           SKY/WX    TMP DP  RH WIND       PRES   REMARKS
CARBONDALE     CLEAR     71  47  42 NE5       30.22S
CAIRO*         CLEAR     71  47  42 N7        30.21R
EFFINGHAM*     CLEAR     70  42  36 CALM      30.23S
MARION         CLEAR     70  46  43 N12       30.23R
MT. VERNON     CLEAR     68  46  45 CALM      30.24S
CENTRALIA*     CLEAR     69  46  43 E3        30.23S
SALEM*         CLEAR     70  49  47 CALM      30.23S
METROPOLIS*    CLEAR     71  45  39 N7        30.20S
$$

ILZ067-068-072-073-078-083-087-091-230000-
SOUTHEAST ILLINOIS

CITY           SKY/WX    TMP DP  RH WIND       PRES   REMARKS
LAWRENCEVILLE  CLEAR     68  51  54 N7        30.23R
FLORA*         CLEAR     70  43  37 N3        30.23S
FAIRFIELD*     CLEAR    N/A N/A N/A CALM      30.23R
HARRISBURG*    CLEAR     69  44  39 NE5       30.23S
ROBINSON*      CLEAR     67  49  52 N5        30.24R
CARMI*         CLEAR     71  46  41 N3        30.22R
$$

ABBREVIATIONS USED IN REMARKS
   TC - TEMPERATURE IN CELSIUS
  WCI - WIND CHILL INDEX
   HX - HEAT INDEX
  VSB - VISIBILITY
$$




USA.gov is the U.S. government's official web portal to all federal, state and local government web resources and services.